AAL156 KMCO-LEMD

Flight info

Callsign AAL156
Flight time N/A
Altitude 35000
Route MZULO3 ETECK DCT KR90W DCT JAINS/M084F350 DCT 37N068W DCT 3760N DCT 3850N DCT 3940N/M084F370 DCT 3930N DCT 4020N DCT ERPES/N0477F380 DCT BARDI M191 RIDAV
Aircraft B77W/H-SDE1E2E3FGHIJ2J3J4J5M1RWXYZ/LB1D1

Departure

Time 2026-04-21 21:46
Airport Orlando International Airport (KMCO)

Arrival

Time N/A
Airport Adolfo Suárez Madrid–Barajas Airport (LEMD)
Time Latitude Longitude Altitude Speed Heading
2026-04-21 21:15 28.42554 -81.30112 108 ft 0 kts 55°
2026-04-21 21:25 28.42546 -81.30125 108 ft 3 kts 55°
2026-04-21 21:26 28.42536 -81.30141 108 ft 3 kts 55°
2026-04-21 21:26 28.42526 -81.30157 108 ft 3 kts 55°
2026-04-21 21:26 28.42516 -81.30173 108 ft 3 kts 55°
2026-04-21 21:26 28.42506 -81.30190 108 ft 3 kts 68°
2026-04-21 21:27 28.42503 -81.30209 107 ft 3 kts 103°
2026-04-21 21:27 28.42507 -81.30222 108 ft 0 kts 119°
2026-04-21 21:32 28.42498 -81.30204 107 ft 4 kts 120°
2026-04-21 21:32 28.42482 -81.30175 108 ft 5 kts 124°
2026-04-21 21:32 28.42450 -81.30143 108 ft 8 kts 155°
2026-04-21 21:32 28.42395 -81.30134 108 ft 8 kts 165°
2026-04-21 21:33 28.42363 -81.30085 108 ft 8 kts 100°
2026-04-21 21:33 28.42362 -81.30018 108 ft 9 kts 90°
2026-04-21 21:33 28.42362 -81.29927 108 ft 15 kts 89°
2026-04-21 21:33 28.42363 -81.29807 107 ft 15 kts 89°
2026-04-21 21:34 28.42368 -81.29727 107 ft 8 kts 72°
2026-04-21 21:34 28.42415 -81.29702 107 ft 8 kts
2026-04-21 21:34 28.42482 -81.29701 107 ft 14 kts
2026-04-21 21:34 28.42625 -81.29703 105 ft 28 kts 359°
2026-04-21 21:35 28.42819 -81.29705 109 ft 28 kts 359°
2026-04-21 21:35 28.43009 -81.29706 109 ft 26 kts 359°
2026-04-21 21:35 28.43179 -81.29709 109 ft 24 kts 359°
2026-04-21 21:35 28.43337 -81.29710 108 ft 24 kts 359°
2026-04-21 21:36 28.43457 -81.29712 109 ft 12 kts 359°
2026-04-21 21:36 28.43519 -81.29712 108 ft 8 kts
2026-04-21 21:36 28.43548 -81.29672 108 ft 7 kts 82°
2026-04-21 21:36 28.43551 -81.29611 108 ft 9 kts 88°
2026-04-21 21:37 28.43552 -81.29522 110 ft 14 kts 89°
2026-04-21 21:37 28.43553 -81.29393 111 ft 17 kts 89°
2026-04-21 21:37 28.43556 -81.29306 109 ft 9 kts 80°
2026-04-21 21:37 28.43605 -81.29265 108 ft 10 kts
2026-04-21 21:38 28.43677 -81.29263 107 ft 12 kts 359°
2026-04-21 21:38 28.43778 -81.29264 106 ft 12 kts 359°
2026-04-21 21:38 28.43816 -81.29264 105 ft 8 kts 359°
2026-04-21 21:38 28.43860 -81.29235 105 ft 8 kts 64°
2026-04-21 21:39 28.43869 -81.29171 105 ft 8 kts 89°
2026-04-21 21:39 28.43871 -81.29084 109 ft 13 kts 89°
2026-04-21 21:39 28.43871 -81.28976 111 ft 15 kts 89°
2026-04-21 21:39 28.43872 -81.28854 111 ft 16 kts 90°
2026-04-21 21:40 28.43873 -81.28729 110 ft 16 kts 89°
2026-04-21 21:40 28.43875 -81.28603 111 ft 16 kts 89°
2026-04-21 21:40 28.43876 -81.28484 112 ft 11 kts 89°
2026-04-21 21:40 28.43876 -81.28418 112 ft 8 kts 98°
2026-04-21 21:41 28.43837 -81.28380 111 ft 8 kts 165°
2026-04-21 21:41 28.43777 -81.28377 110 ft 10 kts 179°
2026-04-21 21:41 28.43677 -81.28375 109 ft 20 kts 179°
2026-04-21 21:41 28.43509 -81.28373 107 ft 26 kts 179°
2026-04-21 21:42 28.43330 -81.28372 103 ft 26 kts 180°
2026-04-21 21:42 28.43152 -81.28370 104 ft 26 kts 179°
2026-04-21 21:42 28.42973 -81.28368 105 ft 26 kts 179°
2026-04-21 21:42 28.42797 -81.28367 108 ft 26 kts 179°
2026-04-21 21:43 28.42620 -81.28365 112 ft 26 kts 179°
2026-04-21 21:43 28.42441 -81.28363 112 ft 26 kts 179°
2026-04-21 21:43 28.42263 -81.28360 113 ft 26 kts 179°
2026-04-21 21:43 28.42088 -81.28359 109 ft 22 kts 179°
2026-04-21 21:44 28.42008 -81.28358 107 ft 9 kts 179°
2026-04-21 21:44 28.41945 -81.28355 107 ft 9 kts 171°
2026-04-21 21:44 28.41912 -81.28316 107 ft 7 kts 107°
2026-04-21 21:44 28.41909 -81.28266 107 ft 4 kts 84°
2026-04-21 21:45 28.41926 -81.28243 107 ft 4 kts 32°
2026-04-21 21:45 28.41953 -81.28236 108 ft 4 kts
2026-04-21 21:45 28.41973 -81.28235 109 ft 0 kts
2026-04-21 21:45 28.41994 -81.28235 109 ft 13 kts
2026-04-21 21:46 28.42286 -81.28237 111 ft 84 kts 359°
2026-04-21 21:46 28.43176 -81.28245 104 ft 170 kts 359°
2026-04-21 21:46 28.44553 -81.28272 394 ft 209 kts
2026-04-21 21:46 28.46043 -81.28308 1155 ft 220 kts
2026-04-21 21:47 28.47576 -81.28266 1866 ft 224 kts 13°
2026-04-21 21:47 28.48985 -81.27463 2238 ft 233 kts 51°
2026-04-21 21:47 28.49799 -81.25854 2743 ft 241 kts 67°
2026-04-21 21:47 28.50505 -81.24121 3467 ft 244 kts 62°
2026-04-21 21:48 28.51320 -81.22399 4109 ft 250 kts 71°
2026-04-21 21:48 28.51393 -81.20448 4699 ft 256 kts 101°
2026-04-21 21:48 28.51127 -81.18432 4994 ft 262 kts 88°
2026-04-21 21:48 28.51215 -81.16357 4997 ft 263 kts 89°
2026-04-21 21:49 28.51147 -81.14277 5605 ft 263 kts 92°
2026-04-21 21:49 28.51045 -81.12204 6464 ft 263 kts 91°
2026-04-21 21:49 28.50952 -81.10106 7251 ft 266 kts 91°
2026-04-21 21:49 28.50867 -81.07986 7980 ft 270 kts 90°
2026-04-21 21:50 28.50786 -81.05835 8704 ft 274 kts 90°
2026-04-21 21:50 28.50701 -81.03651 9403 ft 279 kts 91°
2026-04-21 21:50 28.50471 -81.01442 10069 ft 285 kts 97°
2026-04-21 21:50 28.50128 -80.99166 10463 ft 302 kts 98°
2026-04-21 21:51 28.49752 -80.96749 10624 ft 326 kts 98°
2026-04-21 21:51 28.49349 -80.94110 10811 ft 349 kts 98°
2026-04-21 21:51 28.48932 -80.91306 11045 ft 370 kts 97°
2026-04-21 21:51 28.48505 -80.88371 11565 ft 381 kts 97°
2026-04-21 21:52 28.48070 -80.85358 12172 ft 390 kts 97°
2026-04-21 21:52 28.47678 -80.82294 12797 ft 392 kts 92°
2026-04-21 21:52 28.47810 -80.79180 13301 ft 397 kts 80°
2026-04-21 21:52 28.48211 -80.76062 13986 ft 401 kts 79°
2026-04-21 21:53 28.48632 -80.72914 14724 ft 404 kts 79°
2026-04-21 21:53 28.49041 -80.69733 15420 ft 409 kts 79°
2026-04-21 21:53 28.49434 -80.66511 16083 ft 415 kts 80°
2026-04-21 21:53 28.49815 -80.63231 16736 ft 420 kts 80°
2026-04-21 21:54 28.50183 -80.59963 17374 ft 425 kts 80°
2026-04-21 21:54 28.50554 -80.56609 18003 ft 430 kts 80°
2026-04-21 21:54 28.50925 -80.53222 18618 ft 435 kts 80°
2026-04-21 21:54 28.51301 -80.49784 19228 ft 439 kts 80°
2026-04-21 21:55 28.51681 -80.46307 19800 ft 445 kts 80°
2026-04-21 21:55 28.52064 -80.42803 20370 ft 450 kts 80°
2026-04-21 21:55 28.52451 -80.39243 20935 ft 455 kts 80°
2026-04-21 21:55 28.52837 -80.35698 21459 ft 460 kts 80°
2026-04-21 21:56 28.53230 -80.32077 21988 ft 464 kts 81°
2026-04-21 21:56 28.53726 -80.28438 22484 ft 466 kts 73°
2026-04-21 21:56 28.54817 -80.24970 22958 ft 466 kts 63°
2026-04-21 21:56 28.56154 -80.21591 23459 ft 470 kts 62°
2026-04-21 21:57 28.57542 -80.18202 23933 ft 474 kts 62°
2026-04-21 21:57 28.58929 -80.14782 24389 ft 479 kts 62°
2026-04-21 21:57 28.60300 -80.11320 24865 ft 483 kts 63°
2026-04-21 21:57 28.61660 -80.07803 25341 ft 486 kts 63°
2026-04-21 21:58 28.63009 -80.04258 25824 ft 489 kts 63°
2026-04-21 21:58 28.64353 -80.00692 26260 ft 493 kts 63°
2026-04-21 21:58 28.65711 -79.97081 26703 ft 496 kts 63°
2026-04-21 21:58 28.67055 -79.93501 27121 ft 499 kts 63°
2026-04-21 21:59 28.68441 -79.89811 27513 ft 503 kts 63°
2026-04-21 21:59 28.69822 -79.86136 27922 ft 506 kts 63°
2026-04-21 21:59 28.71191 -79.82492 28288 ft 509 kts 63°
2026-04-21 21:59 28.72587 -79.78773 28653 ft 512 kts 63°
2026-04-21 22:00 28.74009 -79.74984 29010 ft 515 kts 63°
2026-04-21 22:00 28.75400 -79.71271 29350 ft 517 kts 63°
2026-04-21 22:00 28.76814 -79.67491 29662 ft 520 kts 63°
2026-04-21 22:00 28.78232 -79.63696 29991 ft 522 kts 63°
2026-04-21 22:01 28.79654 -79.59889 30407 ft 521 kts 63°
2026-04-21 22:01 28.81097 -79.56094 30849 ft 518 kts 60°
2026-04-21 22:01 28.82889 -79.52570 31234 ft 511 kts 51°
2026-04-21 22:01 28.84947 -79.49286 31618 ft 508 kts 48°
2026-04-21 22:02 28.87079 -79.46082 32021 ft 506 kts 47°
2026-04-21 22:02 28.89219 -79.42891 32411 ft 505 kts 47°
2026-04-21 22:02 28.91336 -79.39683 32751 ft 506 kts 48°
2026-04-21 22:02 28.93421 -79.36455 33084 ft 506 kts 49°
2026-04-21 22:03 28.95487 -79.33197 33431 ft 505 kts 49°
2026-04-21 22:03 28.97530 -79.29939 33775 ft 504 kts 49°
2026-04-21 22:03 28.99564 -79.26676 34096 ft 504 kts 49°
2026-04-21 22:03 29.01597 -79.23412 34416 ft 503 kts 49°
2026-04-21 22:04 29.03623 -79.20158 34665 ft 504 kts 49°
2026-04-21 22:04 29.05660 -79.16889 34877 ft 505 kts 49°
2026-04-21 22:04 29.07674 -79.13661 35080 ft 506 kts 49°
2026-04-21 22:04 29.09724 -79.10373 35200 ft 509 kts 49°
2026-04-21 22:05 29.11784 -79.07068 35247 ft 512 kts 49°
2026-04-21 22:05 29.15919 -79.00419 35249 ft 510 kts 49°
2026-04-21 22:06 29.20005 -78.93832 35257 ft 506 kts 49°
2026-04-21 22:06 29.24053 -78.87304 35262 ft 504 kts 49°
2026-04-21 22:07 29.28109 -78.80753 35259 ft 504 kts 49°
2026-04-21 22:07 29.32163 -78.74194 35274 ft 504 kts 49°
2026-04-21 22:08 29.36223 -78.67616 35270 ft 505 kts 49°
2026-04-21 22:08 29.40359 -78.61177 35270 ft 504 kts 46°
2026-04-21 22:09 29.44620 -78.54783 35282 ft 505 kts 47°
2026-04-21 22:09 29.48886 -78.48369 35267 ft 503 kts 42°
2026-04-21 22:10 29.54022 -78.43149 35275 ft 491 kts 31°
2026-04-21 22:10 29.59430 -78.38351 35282 ft 491 kts 31°
2026-04-21 22:11 29.64785 -78.33452 35268 ft 492 kts 32°
2026-04-21 22:11 29.70044 -78.28493 35284 ft 492 kts 33°
2026-04-21 22:12 29.75318 -78.23481 35269 ft 491 kts 33°
2026-04-21 22:12 29.80594 -78.18469 35276 ft 491 kts 32°
2026-04-21 22:13 29.85853 -78.13473 35273 ft 490 kts 32°
2026-04-21 22:13 29.91118 -78.08466 35274 ft 489 kts 32°
2026-04-21 22:14 29.96368 -78.03466 35274 ft 489 kts 32°
2026-04-21 22:14 30.01709 -77.98653 35271 ft 482 kts 26°
2026-04-21 22:15 30.07369 -77.94541 35281 ft 480 kts 25°
2026-04-21 22:15 30.13052 -77.90488 35290 ft 481 kts 25°
2026-04-21 22:16 30.18734 -77.86390 35282 ft 481 kts 25°
2026-04-21 22:16 30.24405 -77.82261 35281 ft 482 kts 25°
2026-04-21 22:17 30.30082 -77.78114 35282 ft 482 kts 25°
2026-04-21 22:17 30.35723 -77.73987 35284 ft 483 kts 25°
2026-04-21 22:18 30.41412 -77.69821 35284 ft 483 kts 25°
2026-04-21 22:18 30.47081 -77.65665 35297 ft 482 kts 25°
2026-04-21 22:19 30.52748 -77.61505 35293 ft 482 kts 25°
2026-04-21 22:19 30.58421 -77.57334 35292 ft 482 kts 25°
2026-04-21 22:20 30.64050 -77.53190 35297 ft 482 kts 25°
2026-04-21 22:20 30.69708 -77.49019 35306 ft 481 kts 25°
2026-04-21 22:21 30.75362 -77.44845 35306 ft 481 kts 25°
2026-04-21 22:21 30.81012 -77.40669 35302 ft 481 kts 25°
2026-04-21 22:22 30.86667 -77.36482 35313 ft 480 kts 25°
2026-04-21 22:22 30.92311 -77.32297 35314 ft 480 kts 25°
2026-04-21 22:23 30.97948 -77.28112 35312 ft 480 kts 25°
2026-04-21 22:23 31.03551 -77.23946 35314 ft 480 kts 25°
2026-04-21 22:24 31.09187 -77.19750 35314 ft 480 kts 25°
2026-04-21 22:24 31.14815 -77.15554 35322 ft 480 kts 25°
2026-04-21 22:25 31.20444 -77.11350 35322 ft 480 kts 25°
2026-04-21 22:25 31.25113 -77.07858 35321 ft 479 kts 25°
2026-04-21 22:26 31.30723 -77.03658 35332 ft 479 kts 25°
2026-04-21 22:26 31.36890 -76.98029 35339 ft 492 kts 37°
2026-04-21 22:27 31.40765 -76.92934 35335 ft 504 kts 43°
2026-04-21 22:27 31.45185 -76.86571 35333 ft 508 kts 44°
2026-04-21 22:28 31.49638 -76.80136 35335 ft 508 kts 43°
2026-04-21 22:28 31.54107 -76.73734 35328 ft 507 kts 43°
2026-04-21 22:29 31.58572 -76.67368 35330 ft 504 kts 43°
2026-04-21 22:29 31.63016 -76.61030 35326 ft 502 kts 43°
2026-04-21 22:30 31.67444 -76.54704 35332 ft 499 kts 43°
2026-04-21 22:30 31.71815 -76.48446 35330 ft 498 kts 43°
2026-04-21 22:31 31.76197 -76.42162 35330 ft 497 kts 43°
2026-04-21 22:31 31.80572 -76.35876 35332 ft 497 kts 43°
2026-04-21 22:32 31.84946 -76.29583 35332 ft 497 kts 43°
2026-04-21 22:32 31.89301 -76.23307 35336 ft 497 kts 43°
2026-04-21 22:33 31.93704 -76.16949 35338 ft 498 kts 43°
2026-04-21 22:33 31.98048 -76.10666 35344 ft 498 kts 43°
2026-04-21 22:34 32.02423 -76.04328 35341 ft 498 kts 43°
2026-04-21 22:34 32.06795 -75.97983 35339 ft 498 kts 43°
2026-04-21 22:35 32.11166 -75.91629 35343 ft 498 kts 43°
2026-04-21 22:35 32.15537 -75.85265 35342 ft 498 kts 43°
2026-04-21 22:36 32.22085 -75.75710 35329 ft 499 kts 43°
2026-04-21 22:36 32.26424 -75.69365 35333 ft 498 kts 43°
2026-04-21 22:37 32.30778 -75.62987 35340 ft 498 kts 43°
2026-04-21 22:37 32.35132 -75.56601 35336 ft 498 kts 43°
2026-04-21 22:38 32.39446 -75.50260 35333 ft 498 kts 43°
2026-04-21 22:38 32.43794 -75.43859 35331 ft 498 kts 43°
2026-04-21 22:39 32.47619 -75.36969 35327 ft 515 kts 63°
2026-04-21 22:39 32.49685 -75.28815 35329 ft 510 kts 57°
2026-04-21 22:40 32.51511 -75.25285 35341 ft 498 kts 44°
2026-04-21 22:40 32.53685 -75.22098 35336 ft 499 kts 42°
2026-04-21 22:40 32.58174 -75.15846 35334 ft 502 kts 42°
2026-04-21 22:41 32.62660 -75.09443 35329 ft 504 kts 44°
2026-04-21 22:41 32.67022 -75.02994 35325 ft 503 kts 44°
2026-04-21 22:42 32.71376 -74.96488 35327 ft 501 kts 44°
2026-04-21 22:42 32.75694 -74.90039 35342 ft 498 kts 44°
2026-04-21 22:43 32.80005 -74.83598 35342 ft 496 kts 44°
2026-04-21 22:43 32.84301 -74.77167 35338 ft 495 kts 44°
2026-04-21 22:44 32.88574 -74.70757 35342 ft 495 kts 44°
2026-04-21 22:44 32.92828 -74.64366 35341 ft 496 kts 45°
2026-04-21 22:45 32.97114 -74.57915 35339 ft 497 kts 45°
2026-04-21 22:45 33.01405 -74.51443 35343 ft 498 kts 45°
2026-04-21 22:46 33.05706 -74.44945 35350 ft 499 kts 45°
2026-04-21 22:46 33.10010 -74.38430 35343 ft 500 kts 45°
2026-04-21 22:47 33.14290 -74.31941 35344 ft 501 kts 45°
2026-04-21 22:47 33.18606 -74.25384 35339 ft 501 kts 45°
2026-04-21 22:48 33.22909 -74.18834 35336 ft 500 kts 45°
2026-04-21 22:48 33.27194 -74.12303 35338 ft 499 kts 45°
2026-04-21 22:49 33.31476 -74.05764 35343 ft 498 kts 45°
2026-04-21 22:49 33.35721 -73.99270 35337 ft 498 kts 45°
2026-04-21 22:50 33.39990 -73.92728 35340 ft 498 kts 46°
2026-04-21 22:50 33.44252 -73.86187 35345 ft 498 kts 46°
2026-04-21 22:51 33.48516 -73.79630 35348 ft 499 kts 46°
2026-04-21 22:51 33.52753 -73.73101 35346 ft 499 kts 46°
2026-04-21 22:52 33.57023 -73.66511 35343 ft 500 kts 46°
2026-04-21 22:52 33.61297 -73.59902 35343 ft 500 kts 46°
2026-04-21 22:53 33.65528 -73.53347 35338 ft 500 kts 46°
2026-04-21 22:53 33.69779 -73.46749 35343 ft 500 kts 46°
2026-04-21 22:54 33.74027 -73.40145 35341 ft 499 kts 46°
2026-04-21 22:54 33.78284 -73.33515 35338 ft 500 kts 46°
2026-04-21 22:55 33.82530 -73.26890 35337 ft 500 kts 46°
2026-04-21 22:55 33.86747 -73.20299 35340 ft 500 kts 46°
2026-04-21 22:56 33.90994 -73.13647 35339 ft 501 kts 46°
2026-04-21 22:56 33.95243 -73.06980 35339 ft 502 kts 46°
2026-04-21 22:57 33.99492 -73.00297 35338 ft 502 kts 46°
2026-04-21 22:57 34.03743 -72.93597 35345 ft 502 kts 46°
2026-04-21 22:58 34.07984 -72.86904 35335 ft 502 kts 46°
2026-04-21 22:58 34.12218 -72.80215 35337 ft 501 kts 46°
2026-04-21 22:59 34.16419 -72.73567 35341 ft 501 kts 46°